Showing default

PROPCUBE 3, 40973

Orbit data source: Space-Track

PROPCUBE 3, 40973 is a payload satellite owned by USN PGS (US) in LEO that was launched on Thu, 08 Oct 2015 UTC via an ATLAS V 401 launch vehicle from the Air Force Western Test Range (AFWTR). Payload-class satellites include a variety of spacecraft equipped with specific instruments for various scientific and technological missions. These include communications satellites like Starlink; space stations such as the ISS; scientific satellites like the Hubble; Earth observation satellites from companies like Planet Labs, Umbra, and HawkEye 360; GPS; miniature CubeSats for education and research; and military/defense satellites.

Loading next visibility...
Identifier
40973, 2015-058K
Orbit
LEO
Country
Flag of USUS
Related business
Manufacturer
Tyvak NSS
Mission
Operational Commercial Technology
Bus & Motor
CUBESAT 1U, Unknown motor
Mass
1 kg wet, 1 kg dry
Launch date (UTC)
2015-10-08 (10 years ago)
Launch vehicle
ATLAS V 401
Launch site
Air Force Western Test Range (AFWTR)
Object type
Payload
Rocket body
Debris
Shape & HBR
Box, 0.1 m
Radar Cross Section
0.015 m², Small (<0.1 m²)

Expand to show TLE details & history
Last TLE update: 1 day ago

TLE from 1 day ago
0 PROPCUBE 3
1 40973U 15058K   25259.73055261  .00006834  00000-0  57197-3 0  9997
2 40973  64.7707  25.3626 0143176 165.7817 194.7393 14.91543578 73976
Epoch: 2025-09-16T17:31Z
TLE epoch observation values (Epoch: 2025-09-16T17:31:59.745Z)
Latitude
-0.00004°
Longitude
126.44698°
Altitude
691.758 km
Speed
7.459 km/s
True Right ascension
01h 41m 27s
True Declination
0° 00' 00"
Sunlit
Object was in full shadow at epoch
Visualization orbit readout
Latitude
Unknown
Longitude
Unknown
Altitude
Unknown
Speed
Unknown
Apparent Right ascension
Unknown
Apparent Declination
Unknown
Sunlit
N/A
Visualization observer readout
Local Sidereal Time
11:58:48
Azimuth
Unknown
Elevation
Unknown
Doppler factor
Unknown
Orbital elements
Apogee altitude
691.48 km
Perigee altitude
491.898 km
Semi-major axis
6,969.826 km
Eccentricity
0.01432
Inclination
64.7707°
RAAN
25.3626°
Arg. of periapsis
165.7817°
True anomaly
194.32899°
Mean anomaly
194.7393°
Eccentric anomaly
194.53344°
Mean motion
3.73001 °/min
Orbital period
96.51 mins
BSTAR
0.00057197
Loading maneuver chart data...
Computing Atmospheric mass density...
Loading historical data...
Loading historical data...
Loading historical data...
Loading historical data...
Loading historical data...
Loading historical data...
Loading historical data...

Documentation

Showing up to 5 results
|